GFSSW_sfc_wetblb_021.txt.gz
Wetbulb
58.87 58.98 59.09 59.18 59.08 59.18 59.36 59.44 59.41 59.46 59.69 59.91 60.01 59.95 60.09 60.38 59.75 53.65 46.50 53.11 54.96 64.23 57.99 51.43 50.93 49.64 49.67 48.30 47.58 45.14 38.88 35.40 38.04 37.09 40.34 43.07 42.50 44.18 44.86 44.69 44.75 46.18 46.35 47.84 46.15
58.56 58.63 58.85 58.89 58.81 58.79 58.75 58.74 58.71 58.88 59.16 59.33 59.54 59.80 59.75 59.98 52.17 47.92 56.13 62.06 65.18 61.90 50.68 49.18 47.56 47.95 45.69 46.12 46.47 43.23 36.97 37.82 40.16 39.64 41.33 42.97 42.91 44.12 44.08 44.08 42.80 44.68 46.13 45.46 45.58
58.38 58.43 58.54 58.64 58.59 58.77 58.88 58.85 58.74 58.73 58.78 58.81 59.02 59.38 59.41 57.15 44.56 44.02 62.40 63.01 65.23 59.57 50.66 49.27 48.25 47.51 44.31 45.20 44.82 42.28 39.69 40.54 41.73 41.47 42.88 42.92 41.73 43.96 42.99 43.00 43.79 44.38 46.52 45.12 44.12
58.53 58.38 58.41 58.37 58.45 58.70 58.86 58.93 59.19 59.01 58.88 58.69 58.74 58.93 59.41 51.04 38.19 44.99 63.71 64.75 64.79 51.77 50.03 47.83 46.88 44.57 42.75 42.05 44.40 40.65 42.75 42.14 44.04 43.94 43.05 42.29 42.94 41.83 42.68 47.79 47.71 46.27 46.85 45.44 44.19
58.49 58.39 58.41 58.31 58.40 58.68 58.83 58.96 59.26 59.40 58.96 58.84 58.63 58.73 51.04 40.54 43.80 55.20 63.63 63.76 52.42 50.35 48.44 46.48 45.05 43.74 41.38 41.24 42.02 40.96 41.88 43.58 43.76 43.21 43.10 43.12 43.23 42.78 42.63 46.06 45.89 44.95 44.00 44.30 44.09
58.41 58.20 58.18 58.28 58.40 58.69 58.86 59.00 59.15 59.46 59.03 58.87 58.63 58.29 43.99 38.49 47.64 57.23 56.49 52.41 50.65 48.78 46.67 46.52 45.35 45.18 42.06 41.21 41.37 41.04 41.72 41.65 41.91 42.43 42.35 42.64 43.85 41.69 44.02 44.76 44.50 43.30 44.07 43.44 43.07
58.49 58.12 57.94 58.05 58.52 58.66 58.85 58.95 59.04 59.18 58.84 58.98 58.41 55.20 42.50 43.08 49.00 52.81 52.53 49.54 49.46 47.91 45.49 45.86 46.14 45.07 43.20 39.99 41.77 40.65 39.23 39.32 39.11 40.34 40.62 40.86 39.68 38.22 45.16 42.24 43.80 43.93 42.82 42.30 43.37
58.14 57.64 57.53 57.80 58.22 58.53 58.81 59.08 58.97 58.35 59.04 58.24 58.27 50.95 39.10 47.49 48.68 49.39 47.34 45.86 47.34 46.69 46.63 46.42 46.24 44.77 42.62 42.25 39.87 36.33 35.77 33.57 37.87 38.62 39.11 41.06 35.64 41.90 42.33 40.43 41.74 42.30 42.66 43.13 43.85
57.68 57.32 57.52 57.85 57.93 58.09 58.50 58.58 57.82 59.32 58.53 58.45 50.07 42.46 39.65 50.95 45.87 46.95 46.29 45.48 45.67 45.27 45.99 47.72 45.50 41.41 40.29 36.38 33.83 32.95 30.77 30.95 34.51 38.85 38.70 38.43 36.04 40.52 40.87 40.26 41.30 42.67 44.35 43.51 45.62
57.66 57.49 57.75 57.94 57.94 58.09 58.16 56.11 55.88 55.17 56.36 56.42 51.13 40.47 42.60 41.59 46.06 45.70 45.02 46.35 43.77 43.72 43.27 42.30 38.57 36.54 33.93 33.91 29.67 30.63 28.72 30.16 31.60 37.12 35.10 34.97 35.47 39.62 42.03 40.90 42.18 43.05 43.41 44.44 45.10
57.97 58.01 58.09 57.98 58.20 58.56 52.23 45.13 45.16 42.39 43.37 41.12 41.51 39.66 40.59 44.13 45.73 43.93 45.70 44.86 43.07 40.60 36.47 37.62 34.06 32.50 36.89 35.86 34.04 31.71 30.60 29.92 33.13 36.78 34.41 36.64 36.89 37.97 40.60 39.92 41.01 42.71 43.75 43.66 43.95
58.38 58.36 58.25 58.06 58.17 57.14 47.58 43.77 42.70 42.96 38.60 44.09 43.39 43.12 44.15 44.91 41.15 42.20 45.51 41.44 39.15 35.75 35.82 33.69 31.07 36.87 36.19 35.05 34.42 33.33 32.52 31.74 35.36 37.53 33.57 33.97 35.56 39.45 40.71 41.35 42.25 42.70 43.21 42.80 42.72
58.57 58.32 58.16 57.97 57.56 52.27 45.30 44.85 47.23 45.37 36.20 40.97 41.72 40.41 42.06 44.55 40.50 40.94 43.83 39.42 36.55 33.76 33.86 33.35 35.58 37.51 35.82 33.55 33.27 31.15 30.18 32.38 31.71 33.30 33.62 31.34 32.06 33.28 38.24 38.63 40.54 42.18 42.72 42.52 42.33
58.17 58.11 58.12 58.08 53.15 48.77 46.23 46.73 47.14 43.34 35.04 38.12 37.51 39.29 40.84 41.00 36.77 40.68 41.41 39.15 35.34 35.03 33.98 33.05 36.43 35.92 32.58 32.38 33.94 31.23 34.56 33.95 31.88 29.71 26.65 32.44 26.33 31.16 36.78 37.77 37.96 39.14 39.18 40.02 40.28
55.23 56.51 57.91 56.44 51.92 50.23 48.35 48.53 47.23 41.17 31.38 38.29 36.08 42.51 40.22 36.28 35.64 37.49 39.24 38.36 33.39 33.46 33.71 33.47 32.80 31.85 31.92 34.13 34.22 33.02 33.57 31.90 30.89 28.47 27.02 27.23 25.35 30.26 32.88 35.96 37.45 40.07 40.18 41.10 40.81
53.05 53.99 56.51 54.98 52.92 51.58 50.30 48.82 47.18 38.69 31.82 37.67 36.14 35.73 34.81 35.31 34.69 36.31 37.20 38.19 35.34 32.63 32.18 32.81 34.40 34.78 35.14 33.89 34.85 34.35 31.63 30.36 27.91 27.46 22.63 28.33 28.04 28.55 32.14 35.33 36.05 39.75 40.88 39.67 39.54
51.66 52.20 55.55 55.27 52.66 51.98 52.37 50.60 39.42 33.71 42.56 36.42 32.59 34.50 32.41 32.26 34.00 34.09 32.65 31.68 31.01 27.77 27.15 30.53 31.95 33.71 34.49 31.71 33.50 33.20 29.45 23.80 21.62 20.74 22.96 27.09 25.87 31.20 35.36 37.46 38.13 39.57 39.33 39.12 37.77
50.34 51.36 53.25 55.16 52.47 53.53 53.34 45.94 33.22 38.62 38.83 41.45 40.00 38.67 36.10 36.92 38.07 35.65 33.34 31.80 33.69 32.39 28.91 27.00 29.71 31.99 34.17 35.13 33.76 31.16 32.27 27.24 21.85 19.12 25.66 27.62 26.78 32.80 36.96 38.66 37.70 36.55 37.50 38.17 37.89
48.95 49.07 50.55 53.09 52.94 53.57 47.93 36.86 36.02 37.44 40.14 40.01 40.14 37.11 33.99 34.05 36.80 33.67 32.37 32.88 35.38 34.81 32.98 31.76 29.86 32.31 32.39 33.70 36.30 30.72 29.25 33.66 28.36 27.97 23.30 28.43 32.43 38.73 37.98 36.89 35.69 36.36 36.17 35.37 35.05
42.94 43.00 46.52 52.93 53.31 51.64 42.59 36.15 38.72 42.21 43.01 42.54 37.38 39.08 33.78 33.54 32.65 33.71 33.87 34.12 33.45 35.63 37.53 36.55 31.89 35.83 34.67 32.09 31.14 33.23 34.84 28.18 27.45 21.76 21.62 26.99 27.37 31.21 34.56 35.16 35.23 32.84 32.83 33.83 34.41
42.31 37.71 43.35 53.12 53.26 45.11 35.13 35.77 38.69 43.06 43.84 40.91 39.50 38.17 38.49 37.17 37.15 36.63 37.03 40.20 38.07 36.81 36.34 37.17 35.60 33.79 35.03 30.51 31.32 29.04 28.60 29.62 29.49 29.41 25.30 24.28 26.91 37.44 34.40 31.01 31.30 32.13 32.92 32.04 31.73
40.65 27.88 46.39 53.03 40.72 41.27 36.55 37.17 40.55 39.46 41.24 40.37 41.02 40.02 38.16 38.38 36.81 36.22 35.93 38.74 42.84 40.99 36.55 37.55 35.38 30.72 33.05 37.71 33.83 33.83 34.38 33.57 28.07 26.45 27.73 29.11 29.45 38.54 32.07 31.49 31.23 29.35 29.76 30.40 30.82
35.14 34.67 45.08 49.80 32.42 35.05 37.27 39.09 40.64 37.94 38.42 38.90 37.96 39.55 38.84 36.52 33.36 35.72 36.63 39.65 40.80 40.14 37.64 37.91 32.59 28.70 28.86 30.90 32.73 33.26 35.14 34.40 33.08 31.81 28.09 25.36 28.17 37.56 37.18 30.23 29.54 27.86 28.11 29.33 30.25
33.06 25.05 33.15 43.79 38.42 35.23 31.02 32.77 32.99 36.76 38.33 39.68 38.44 38.57 36.36 35.10 36.82 34.75 35.88 38.35 39.00 39.30 41.94 40.80 33.34 31.31 27.14 29.76 33.58 31.11 32.19 31.51 29.68 24.01 25.79 26.55 26.81 31.69 33.46 26.83 26.45 28.51 28.29 28.46 29.03
29.96 26.68 32.03 27.97 32.49 30.13 35.51 33.10 30.52 30.18 35.51 35.66 33.06 34.40 32.63 30.56 30.74 31.78 34.64 34.02 36.46 36.16 36.60 36.37 30.23 31.25 33.03 31.75 29.43 28.41 26.79 26.78 25.11 26.46 22.71 25.18 25.58 29.75 24.96 24.15 25.23 26.97 29.14 28.49 26.99
27.73 26.61 29.46 29.76 28.92 30.08 30.48 29.26 30.41 30.82 31.52 30.16 29.90 31.47 30.66 28.66 30.31 29.61 29.75 29.93 29.90 28.35 29.30 31.61 25.24 26.28 23.37 25.81 26.11 23.09 23.32 23.88 24.44 25.08 25.36 25.92 24.52 24.86 25.78 25.41 24.39 25.20 27.22 27.59 25.62
29.72 31.59 31.24 25.59 25.98 24.13 23.84 27.00 26.25 27.71 28.34 27.82 27.06 26.16 25.38 29.14 30.30 30.83 31.05 29.46 29.13 26.98 26.02 25.74 24.86 20.39 18.02 22.78 18.65 15.14 20.38 23.48 23.77 25.00 22.69 19.10 20.30 22.43 21.81 23.19 23.26 23.83 25.47 26.20 25.39

GFSSW_sfc_wetblb_024.txt.gz
Wetbulb
59.16 59.28 59.39 59.33 59.36 59.45 59.45 59.36 59.31 59.36 59.57 59.85 60.12 60.25 60.25 60.36 59.71 57.44 50.73 56.34 57.96 63.48 59.77 56.10 56.00 54.93 55.39 53.69 52.94 51.93 47.42 44.67 44.89 44.35 46.24 49.54 48.38 49.56 50.75 50.25 50.07 51.92 52.69 54.41 52.99
58.79 58.90 59.08 59.13 59.11 59.29 59.46 59.52 59.40 59.29 59.30 59.37 59.46 59.73 60.02 59.93 56.07 52.60 59.75 61.66 64.51 61.93 55.45 54.33 52.96 53.68 52.56 52.01 52.78 50.59 46.90 46.08 48.46 48.43 47.16 48.97 48.66 50.12 49.21 50.21 50.21 50.64 53.52 53.00 52.13
58.62 58.65 58.77 58.83 58.93 59.13 59.33 59.40 59.38 59.43 59.31 59.25 59.24 59.40 59.54 59.42 51.14 49.79 61.80 63.06 65.36 60.81 56.37 54.94 54.63 53.19 50.33 51.57 51.42 50.11 46.58 49.41 48.15 48.35 48.11 48.13 48.29 49.98 49.25 48.51 51.30 51.12 52.50 54.23 52.23
58.69 58.54 58.60 58.64 58.78 59.13 59.29 59.38 59.58 59.52 59.39 59.20 59.15 59.14 59.35 56.60 44.62 50.53 63.21 64.82 64.22 56.96 54.77 53.46 52.69 50.38 49.27 48.28 50.64 46.60 49.43 49.63 49.51 48.74 48.26 47.78 49.46 48.44 49.40 50.63 52.98 53.59 53.80 53.61 52.63
58.72 58.55 58.55 58.51 58.65 59.12 59.42 59.56 59.85 60.01 59.60 59.33 59.10 58.89 55.91 48.48 49.52 59.87 64.14 64.71 57.83 54.78 53.54 52.47 50.87 50.46 47.90 48.66 48.24 46.99 49.05 49.64 50.18 48.90 48.68 49.27 48.46 48.84 49.41 52.07 53.23 53.07 51.79 51.43 52.28
58.59 58.35 58.31 58.38 58.63 59.05 59.37 59.60 59.81 59.92 59.47 59.35 59.07 58.38 51.47 43.20 53.32 61.44 61.55 56.21 55.47 54.55 53.00 52.88 51.50 51.99 48.87 47.82 47.25 48.14 47.77 48.15 48.53 48.18 48.43 46.63 48.03 47.13 49.14 51.69 50.84 50.85 50.80 51.50 51.49
58.47 58.13 57.89 58.07 58.70 58.99 59.18 59.42 59.48 59.35 58.95 59.09 59.08 56.49 48.95 48.72 54.91 59.24 56.49 55.21 54.41 54.15 51.60 51.98 52.21 51.01 49.95 46.92 48.34 47.00 44.36 46.82 47.23 46.66 46.09 47.15 44.54 44.97 49.86 50.50 49.09 49.74 50.71 50.80 50.71
58.06 57.66 57.59 57.93 58.41 58.84 59.22 59.48 59.16 58.37 59.44 58.20 58.84 55.49 47.22 51.17 55.63 54.53 53.54 51.58 53.37 52.81 52.16 52.20 52.22 50.37 48.54 48.26 45.71 43.56 43.23 41.00 45.74 44.25 45.37 46.26 41.73 47.54 49.83 47.54 47.85 49.18 50.19 50.63 51.27
57.75 57.44 57.75 58.10 58.18 58.35 58.84 58.77 57.37 59.19 58.87 58.58 54.87 50.06 46.74 52.97 49.93 51.54 52.45 50.24 50.96 50.93 51.42 50.68 51.43 48.26 46.94 44.35 42.33 43.03 39.20 41.00 42.33 44.94 44.28 44.42 42.74 47.21 48.11 46.96 46.95 48.06 48.86 49.36 50.08
57.83 57.70 58.01 58.21 58.18 58.42 58.31 55.48 56.58 57.33 57.83 57.33 53.67 46.50 48.49 46.37 49.79 49.46 50.65 50.87 48.92 49.69 48.60 48.38 47.55 44.98 43.79 42.30 36.97 40.40 39.07 39.42 39.11 43.99 42.50 41.61 41.52 45.14 46.93 46.49 46.23 47.18 48.20 49.17 49.56
58.28 58.32 58.45 58.36 58.55 58.96 55.15 53.42 54.39 51.12 51.32 49.98 49.97 46.66 46.52 49.01 50.23 48.32 49.56 48.82 48.69 47.38 43.60 45.27 42.41 39.95 43.35 43.83 43.88 42.02 39.77 39.17 42.02 44.35 41.23 41.27 42.01 43.68 45.38 45.57 45.78 46.84 47.90 48.91 49.37
58.73 58.73 58.81 58.54 58.62 57.25 54.33 51.88 49.15 48.86 46.75 49.84 48.33 47.16 47.71 49.66 46.20 46.60 49.62 46.18 44.96 42.13 42.17 40.76 38.80 44.24 44.17 42.40 40.56 40.48 38.98 39.19 42.33 43.53 40.45 41.28 40.59 43.27 44.83 45.76 46.78 46.82 47.45 48.45 49.27
58.71 58.51 58.55 58.59 58.19 56.99 52.20 50.80 51.57 50.42 44.84 46.91 45.95 45.13 45.96 48.13 45.59 45.74 47.30 45.59 43.19 40.25 40.79 40.86 43.43 42.66 41.06 40.70 38.86 40.19 38.13 39.01 39.12 40.90 41.19 39.03 39.76 41.21 45.42 46.00 46.31 46.73 47.56 47.59 47.53
58.08 57.95 58.12 58.36 56.09 54.92 51.88 50.94 51.21 49.87 43.84 44.36 42.22 43.99 45.24 46.22 41.86 44.73 46.13 44.83 42.62 40.27 40.75 40.53 42.63 39.67 38.61 38.26 40.36 37.15 42.95 39.78 37.99 36.61 34.11 38.86 33.05 40.89 43.94 44.14 44.89 46.70 46.16 46.65 46.74
54.61 56.06 57.91 56.90 56.22 54.92 51.60 51.53 49.68 46.73 34.19 42.54 41.20 47.52 45.29 42.03 42.12 42.20 45.17 44.75 40.21 40.38 40.04 40.43 39.30 37.62 37.58 39.53 40.60 38.77 39.46 37.91 36.95 36.27 34.73 36.47 33.00 40.92 40.03 42.05 44.37 45.48 44.91 44.73 44.51
52.73 54.37 56.39 56.99 56.86 52.77 51.19 51.17 50.12 42.36 33.80 41.46 41.71 41.27 41.04 41.30 40.28 42.13 42.82 44.70 43.36 39.55 39.84 40.11 40.88 40.28 40.84 39.61 39.77 39.64 38.87 38.22 35.79 35.74 30.76 37.59 35.25 37.43 40.35 41.72 43.27 45.18 42.24 42.44 42.24
51.20 51.84 55.98 56.49 54.07 54.87 54.07 53.22 41.99 35.21 44.98 41.45 38.83 39.41 40.08 38.62 38.90 39.84 40.62 41.39 40.75 37.45 38.84 41.91 41.02 40.04 39.88 38.33 38.49 38.18 36.14 31.83 32.00 30.89 31.65 34.66 34.13 37.16 42.52 42.47 42.37 40.31 40.05 40.57 41.00
49.84 50.88 53.24 56.59 55.39 55.59 56.39 47.41 33.88 39.46 40.93 45.04 42.56 40.28 41.86 40.23 42.12 40.22 41.56 40.80 39.70 38.94 37.26 35.69 34.61 37.48 39.22 39.99 38.31 35.46 37.06 31.84 26.61 28.74 32.91 37.36 33.46 39.69 43.75 43.52 40.95 40.45 40.11 39.91 39.68
48.64 52.40 52.29 54.10 54.86 56.01 49.60 36.56 37.19 40.99 43.96 42.83 42.80 40.29 41.01 40.47 41.32 39.91 38.72 40.07 40.61 39.12 36.28 35.63 35.34 39.74 37.40 38.77 40.55 37.24 33.10 39.04 32.35 33.28 29.13 34.32 39.00 43.09 41.76 42.03 39.73 39.30 39.76 38.05 38.14
46.40 46.92 48.26 54.18 55.61 53.42 42.84 36.37 39.00 44.56 44.65 44.49 38.61 41.45 37.24 39.75 38.23 37.35 39.65 39.44 38.53 38.89 40.43 38.17 33.20 40.59 40.86 38.00 38.45 38.00 38.98 31.06 32.36 24.80 24.47 30.70 33.01 34.89 39.10 38.88 38.65 37.92 36.92 36.34 36.92
45.48 40.63 45.98 54.12 54.77 46.12 35.45 36.27 39.49 44.03 44.57 41.50 39.91 39.02 39.46 38.55 39.73 38.78 38.81 41.76 43.22 40.70 40.44 40.22 36.76 35.96 38.80 36.36 36.17 32.77 32.94 33.84 33.00 31.84 26.18 24.76 30.41 40.74 38.90 36.80 36.40 35.40 34.79 34.44 34.93
44.03 33.58 47.76 53.66 41.49 41.92 37.14 39.07 41.41 41.16 43.67 41.63 42.09 41.21 38.99 39.03 37.10 36.99 36.56 39.98 44.73 43.48 38.27 41.27 37.10 32.14 35.68 41.89 41.08 39.15 37.05 37.32 30.24 28.21 30.92 29.48 30.13 38.90 36.76 35.41 33.82 31.70 32.22 33.36 33.29
39.90 39.88 47.31 50.63 34.51 35.96 39.68 39.47 40.88 39.74 39.70 39.63 38.34 40.81 41.03 37.61 33.75 37.10 38.04 41.84 43.06 41.63 39.39 40.25 35.10 29.46 32.22 35.90 36.59 34.04 36.27 35.86 34.86 32.73 28.98 26.57 29.93 38.00 34.06 32.41 31.78 30.16 31.00 31.51 32.60
37.92 32.07 38.82 44.21 42.61 37.29 35.21 35.19 35.66 39.35 39.55 40.52 39.07 40.60 38.24 35.70 37.66 34.93 35.97 39.43 40.08 40.07 40.26 40.89 35.28 31.20 27.24 31.42 35.41 31.82 34.26 34.69 33.09 27.98 28.23 28.36 30.10 35.14 37.26 35.38 30.17 29.23 30.75 30.81 30.04
35.34 31.59 35.36 33.58 35.91 36.90 36.25 35.06 32.90 32.87 37.37 38.28 35.44 36.54 33.50 30.43 31.76 31.84 34.62 35.51 37.33 36.15 37.64 36.54 29.87 32.16 33.00 34.17 33.71 31.55 30.29 30.13 28.15 28.49 24.48 27.58 27.64 31.81 34.03 27.56 27.87 28.30 29.80 30.45 28.72
32.29 31.72 33.73 31.90 32.24 32.70 33.43 32.76 32.01 33.36 33.46 32.01 31.92 33.92 32.35 30.02 31.26 29.54 31.19 31.88 31.44 33.04 31.53 32.71 27.04 29.27 24.81 29.56 29.29 26.58 28.58 28.55 27.58 27.20 26.41 27.15 26.80 34.65 28.91 28.60 28.37 28.46 28.66 29.17 28.91
35.25 36.47 33.71 29.11 28.94 29.36 29.66 31.22 29.57 31.89 29.62 30.99 29.43 28.86 27.87 30.24 32.58 32.48 32.33 31.18 30.75 28.45 27.25 27.02 26.64 24.67 20.98 27.05 24.45 18.91 23.67 26.47 27.86 29.67 28.86 24.18 27.41 26.41 24.86 26.53 27.80 28.10 28.53 28.74 29.15

GFSSW_sfc_wetblb_030.txt.gz
Wetbulb
59.17 59.37 59.50 59.60 59.59 59.83 59.99 60.15 60.16 60.10 60.04 60.14 60.25 60.28 60.29 60.37 60.22 59.12 54.78 59.25 59.97 64.09 62.56 57.13 55.66 55.31 55.90 54.44 54.39 52.77 43.25 41.01 43.48 43.45 44.04 47.50 44.90 47.44 47.98 45.82 47.50 49.54 47.81 50.18 53.66
58.73 58.93 59.24 59.39 59.55 59.81 60.07 60.23 60.17 60.29 60.33 60.22 60.25 60.27 60.23 59.95 57.09 54.55 60.26 64.39 64.71 64.22 56.57 54.18 52.90 53.86 50.80 52.19 51.95 47.26 43.28 44.20 47.21 46.50 45.36 47.19 45.92 46.38 45.51 46.32 46.54 47.48 50.59 51.74 52.42
58.73 58.87 59.08 59.22 59.33 59.72 60.13 60.30 60.33 60.35 60.47 60.38 60.26 60.25 60.05 58.67 54.64 53.15 62.71 63.75 64.55 62.50 57.77 56.22 54.94 53.38 49.65 50.85 50.19 48.64 43.75 47.70 47.96 49.08 48.60 47.17 46.13 47.62 45.77 44.38 46.75 46.29 48.25 49.19 48.62
58.89 58.84 58.91 59.06 59.20 59.55 60.03 60.18 60.63 60.74 60.52 60.33 60.21 60.13 59.74 57.92 45.08 56.79 63.39 64.43 64.64 58.91 56.24 54.43 52.62 49.60 47.63 46.69 50.52 45.32 48.49 48.80 49.28 49.64 47.64 45.82 48.16 46.36 46.75 46.84 49.82 49.21 49.79 49.46 48.96
59.20 58.96 58.85 58.85 58.94 59.39 59.87 60.27 60.62 60.79 60.57 60.18 59.96 59.98 57.69 51.67 51.00 61.04 63.09 64.22 59.96 57.04 53.49 52.31 49.92 49.20 45.91 47.15 47.55 45.39 47.35 49.21 49.21 48.41 47.72 48.68 46.47 45.77 47.24 48.85 49.98 50.24 49.95 48.93 48.75
58.98 58.66 58.51 58.52 58.98 59.42 59.84 60.25 60.42 60.36 59.94 59.68 59.54 59.08 55.05 47.00 56.18 61.81 61.15 60.06 56.50 54.53 52.81 52.56 50.57 50.87 48.03 46.73 45.20 46.76 46.71 46.55 47.25 47.12 47.41 45.87 45.50 44.58 47.14 48.58 48.35 48.29 47.90 47.72 48.04
58.66 58.34 58.13 58.32 59.04 59.62 59.72 59.91 59.93 59.55 58.96 59.22 59.35 57.54 52.39 50.17 57.03 59.85 59.62 57.18 56.16 54.81 52.25 53.61 53.06 50.25 49.22 45.89 47.58 46.67 42.34 44.32 45.51 46.16 45.23 46.02 41.85 42.86 47.24 47.44 46.79 47.41 46.48 47.27 47.61
58.37 58.02 57.97 58.28 58.82 59.31 59.59 59.94 58.75 58.99 59.02 58.27 59.28 56.49 48.86 53.52 55.81 56.19 56.41 54.49 55.90 55.64 53.76 53.00 53.10 50.30 48.09 48.98 46.27 42.76 41.58 37.11 44.37 45.81 44.32 43.90 37.24 44.76 46.65 45.48 45.12 45.96 45.63 46.48 47.82
58.16 57.94 58.12 58.50 58.71 58.92 59.38 59.24 57.31 58.95 58.63 58.93 56.79 54.39 48.18 54.37 51.81 53.02 53.61 52.14 53.40 53.45 52.57 52.34 51.83 47.35 46.76 41.32 38.65 39.98 34.49 37.78 41.39 46.29 43.56 41.45 37.99 44.53 46.52 45.65 44.62 46.11 46.18 45.97 46.93
58.30 58.19 58.37 58.72 58.91 59.14 59.23 58.46 58.31 57.32 58.09 58.08 55.52 48.25 49.14 48.59 51.34 51.84 52.17 52.74 50.85 50.26 48.98 48.29 46.23 41.93 41.17 38.32 31.96 35.98 37.35 39.29 38.81 43.15 42.86 40.02 39.33 43.33 45.08 45.17 45.13 45.84 45.36 45.11 45.23
58.58 58.67 58.93 59.04 59.35 59.79 58.70 56.08 53.54 51.86 52.10 52.29 53.01 52.06 54.42 50.56 52.44 50.42 51.66 50.00 50.18 47.75 42.18 44.86 39.49 36.80 40.74 42.36 42.72 39.64 37.65 36.89 40.60 44.01 41.30 40.92 41.35 42.35 44.35 45.19 45.11 45.10 44.44 43.97 44.21
59.03 59.13 59.31 59.24 59.53 59.51 57.58 55.61 51.16 51.34 47.32 54.46 54.95 54.67 54.07 51.62 48.24 48.27 50.61 45.66 45.24 41.38 44.12 40.41 36.96 43.25 44.73 43.10 41.18 39.87 37.27 36.49 40.23 43.25 40.78 39.42 39.33 42.67 44.19 44.30 44.78 43.87 43.24 42.98 42.39
59.19 59.11 59.02 59.01 59.01 58.16 56.56 52.75 54.51 53.41 45.94 50.65 51.20 50.08 49.59 50.24 49.05 47.64 48.48 46.82 43.53 41.60 42.17 39.12 42.74 45.98 43.58 40.91 39.71 38.95 37.47 37.40 36.49 39.12 39.67 37.52 34.89 38.57 42.86 43.36 43.53 43.52 42.77 41.93 40.88
59.40 58.91 58.64 58.54 56.37 59.03 54.59 54.59 54.37 53.38 42.23 45.44 45.10 45.74 46.89 48.53 44.62 47.82 48.69 46.24 43.94 41.60 42.85 41.45 43.85 41.70 39.30 38.76 39.71 35.32 40.74 38.50 37.54 33.32 28.71 36.15 25.87 35.17 40.98 40.67 40.44 40.38 39.65 39.29 39.49
57.78 57.42 57.87 56.71 58.76 56.43 53.92 54.42 53.70 49.94 32.61 45.72 42.75 49.95 47.40 44.52 43.80 43.74 46.90 44.54 41.37 41.17 39.39 39.22 38.71 37.76 37.73 39.74 40.91 37.87 39.10 36.97 35.92 32.19 30.63 32.32 28.50 33.80 39.67 36.07 37.40 38.26 38.79 38.67 39.03
53.38 56.59 57.17 57.43 59.15 55.66 55.13 53.68 52.37 41.35 32.68 41.10 43.57 42.47 41.37 42.33 42.19 43.92 44.16 44.64 43.28 40.56 40.72 40.08 40.57 39.56 40.27 41.69 39.46 40.29 36.29 36.32 34.96 32.51 25.41 32.86 31.87 33.03 35.55 36.46 36.40 38.34 38.95 39.32 38.89
51.46 52.16 55.13 58.42 54.87 57.76 57.28 54.96 42.33 35.38 46.08 41.20 40.52 41.69 41.84 40.05 40.33 41.00 40.45 38.34 37.85 34.54 35.26 39.44 39.65 39.81 40.88 36.95 37.92 36.10 32.29 26.68 25.84 23.42 25.10 34.92 31.36 34.22 40.37 39.46 38.86 37.85 37.65 37.77 37.86
49.80 50.48 53.02 57.68 58.65 58.71 56.73 47.49 34.74 40.57 42.23 45.16 43.44 41.98 40.86 42.31 41.09 40.21 39.51 38.50 42.88 40.82 36.14 33.51 31.14 37.82 38.99 37.63 35.69 34.67 35.23 28.29 20.58 23.25 25.87 32.15 27.04 35.13 39.50 39.62 39.53 38.87 37.62 37.42 36.78
50.21 51.77 50.96 54.11 57.60 57.29 50.38 38.56 37.67 40.77 44.09 43.01 44.24 40.49 40.39 43.28 43.58 41.36 40.21 39.70 41.18 40.42 35.50 32.75 33.21 37.17 37.84 37.79 37.76 35.94 32.99 38.15 32.39 27.96 26.65 28.96 33.47 39.21 38.35 37.59 37.53 36.78 35.91 34.38 34.63
49.40 48.87 49.29 54.53 57.16 53.85 43.31 38.25 40.55 44.92 44.61 44.33 38.76 41.26 36.38 38.87 38.72 39.14 37.99 39.92 39.35 40.70 40.79 38.21 31.81 39.60 39.02 37.85 37.74 36.34 38.03 31.14 31.82 19.32 13.31 25.01 26.51 30.75 35.61 36.25 36.36 34.36 33.25 33.63 33.76
48.28 43.21 49.06 54.54 55.74 46.64 36.07 37.54 40.36 44.18 44.57 41.52 39.33 38.44 38.75 37.12 38.24 36.24 36.99 40.58 42.50 39.29 41.41 39.68 36.19 34.04 36.80 34.40 34.72 32.35 31.20 32.14 32.48 28.77 21.51 21.18 25.44 36.61 35.82 37.73 35.21 34.03 34.30 33.45 33.07
45.18 37.03 49.94 54.16 40.79 41.24 36.84 39.65 41.90 41.12 43.58 41.85 41.60 40.01 38.05 37.45 35.62 35.81 35.85 38.52 43.55 41.98 37.14 39.96 36.25 28.91 32.57 38.12 38.72 36.58 34.60 34.52 29.66 25.85 28.12 28.34 28.16 37.95 35.05 34.52 34.40 34.00 34.37 32.92 32.81
40.30 41.75 49.93 50.03 34.75 35.80 39.47 39.36 41.02 39.81 40.06 40.28 39.22 40.69 40.25 36.86 33.11 36.24 36.84 40.93 41.77 40.39 37.78 38.73 32.01 20.67 23.37 30.82 34.93 33.78 35.15 35.59 34.27 31.79 27.33 25.06 26.10 37.94 34.23 33.20 34.66 33.76 32.49 32.49 33.04
39.44 34.01 41.39 44.19 43.15 38.44 36.66 36.59 36.41 41.54 40.25 41.03 39.21 39.32 36.85 34.99 37.22 33.67 34.61 39.10 39.84 39.47 39.86 39.58 32.70 24.62 20.82 25.89 31.06 26.13 29.98 31.56 28.80 25.65 24.81 25.11 27.05 32.45 35.07 33.95 34.09 32.10 31.27 30.78 30.42
38.62 34.43 38.96 33.87 36.36 37.65 37.92 36.46 34.93 34.63 39.25 38.99 36.93 36.95 35.02 30.98 31.60 31.41 34.57 34.85 37.88 37.93 36.20 34.81 22.18 26.16 28.47 29.85 29.09 27.15 26.95 28.53 26.65 27.03 22.28 25.22 26.08 30.90 33.72 28.91 27.95 28.07 28.88 29.46 30.32
33.61 32.47 35.79 35.13 36.76 36.84 36.55 33.24 33.27 34.26 35.54 33.68 33.49 35.16 35.05 31.77 32.42 25.33 30.51 30.56 29.82 32.29 31.66 33.58 18.60 23.52 15.97 25.49 26.35 24.06 26.18 26.65 26.65 26.71 26.33 26.75 26.20 32.53 28.82 28.35 27.14 28.83 28.79 27.18 27.65
37.49 37.89 35.37 34.52 33.54 33.17 34.08 33.93 33.84 35.51 36.24 35.16 34.48 32.83 30.65 32.52 33.28 32.96 32.80 32.27 31.28 28.01 27.33 25.85 20.24 11.86 8.78 21.83 19.60 11.59 21.10 24.05 25.44 27.43 26.62 21.75 25.32 24.29 23.40 26.45 25.72 25.90 27.05 27.17 27.89

GFSSW_sfc_wetblb_033.txt.gz
Wetbulb
59.17 59.35 59.52 59.65 59.79 59.99 60.20 60.41 60.46 60.46 60.60 60.54 60.65 60.64 60.56 60.47 59.72 58.11 53.65 57.24 58.22 64.48 61.85 54.02 52.60 51.11 51.29 49.52 49.79 47.20 38.30 35.64 38.40 39.84 41.26 44.89 43.19 46.06 46.18 43.59 44.39 46.97 45.88 47.96 50.43
58.92 59.04 59.30 59.47 59.58 59.87 60.27 60.52 60.49 60.47 60.67 60.80 60.71 60.66 60.58 60.16 55.89 52.02 60.14 65.42 64.84 64.67 53.84 50.83 49.00 50.02 46.01 47.40 47.71 42.94 37.49 39.60 42.73 40.81 41.87 43.90 42.32 42.45 43.32 43.49 43.24 44.97 47.18 48.75 50.63
59.05 59.06 59.22 59.36 59.54 59.79 60.07 60.47 60.66 60.69 60.75 60.81 60.67 60.57 60.46 58.78 51.37 50.83 62.27 64.24 64.46 63.08 55.32 52.95 51.44 49.78 44.83 45.63 45.61 44.42 40.10 43.69 45.87 46.61 45.53 44.68 44.58 44.71 42.70 41.34 44.02 44.42 46.17 46.50 48.71
59.44 59.14 59.10 59.20 59.31 59.59 60.05 60.49 60.90 60.92 60.80 60.65 60.52 60.51 60.00 55.15 39.72 54.24 62.10 64.28 63.86 57.06 53.98 51.00 48.75 45.01 43.11 42.41 47.07 41.17 45.97 46.38 46.96 47.08 45.30 44.12 45.13 44.98 44.20 46.28 47.45 47.11 47.39 46.46 46.95
59.02 58.78 58.81 58.95 58.94 59.41 60.01 60.41 60.94 60.97 60.76 60.34 60.17 60.11 55.01 47.83 48.62 59.28 62.46 63.23 57.91 54.61 50.88 49.38 46.35 45.31 41.62 42.96 43.84 41.59 43.13 45.81 46.64 45.94 45.14 45.44 43.73 44.30 44.54 47.48 48.16 48.45 47.85 46.90 46.20
58.71 58.36 58.27 58.34 58.90 59.47 59.98 60.39 60.71 60.76 60.14 59.61 59.53 59.18 50.90 43.21 55.85 59.61 59.32 58.15 54.56 51.97 49.52 48.99 47.27 47.51 44.32 43.35 41.61 42.98 43.56 43.71 44.69 45.20 44.98 43.37 42.51 44.05 45.10 45.81 46.05 46.22 45.40 45.05 45.28
58.52 58.01 57.92 58.16 58.89 59.61 59.83 60.17 60.46 59.71 59.26 59.19 59.43 56.67 49.88 47.13 55.45 58.19 58.16 54.42 53.79 52.41 49.95 50.75 49.64 47.02 45.56 42.70 45.01 43.65 40.27 42.03 43.21 43.41 42.88 43.33 39.78 41.76 45.46 44.45 44.38 44.62 43.98 44.42 45.21
58.18 57.73 57.68 58.00 58.63 59.36 59.88 60.10 59.98 58.62 59.25 58.56 59.70 54.35 44.98 51.33 52.20 55.04 53.87 51.99 53.13 53.20 51.49 50.73 50.33 48.09 45.63 45.94 43.84 40.25 37.12 34.63 41.88 43.17 42.91 41.19 35.41 42.99 44.97 42.26 43.64 44.62 43.59 44.14 42.94
57.78 57.43 57.74 58.17 58.57 58.99 59.62 59.88 58.49 58.93 58.78 59.28 53.82 50.24 44.90 53.49 49.82 50.31 50.04 49.78 50.77 50.33 49.18 51.21 48.60 44.01 43.51 38.31 35.06 35.24 31.24 34.41 38.16 42.64 41.79 39.42 35.98 42.74 44.52 43.49 42.39 42.96 42.64 42.41 41.68
57.84 57.62 57.95 58.42 58.76 59.13 59.50 59.82 57.29 57.08 57.43 57.68 55.52 43.62 46.30 46.00 49.00 49.49 48.54 50.40 48.16 47.42 46.02 45.12 42.67 38.00 36.92 34.57 29.04 32.22 31.96 35.15 35.03 40.51 40.28 37.52 37.07 40.81 42.90 42.58 42.77 40.26 40.78 40.00 40.01
58.08 58.15 58.48 58.80 59.20 59.87 58.18 53.07 50.83 48.93 48.89 48.07 47.85 45.08 50.19 48.31 50.10 48.16 49.20 47.46 47.38 44.17 38.42 41.07 35.95 33.47 36.76 37.76 37.42 35.86 34.36 33.36 36.35 41.13 37.78 37.73 37.12 40.03 42.51 42.27 42.42 39.50 39.03 38.94 39.50
58.37 58.61 58.93 59.14 59.38 59.42 56.23 50.97 48.90 49.55 45.12 51.09 52.29 52.44 50.17 49.81 45.73 46.35 48.21 43.01 42.60 38.41 40.31 37.28 34.09 39.81 40.99 40.88 38.53 36.16 33.92 33.64 37.24 40.27 37.53 36.55 36.67 39.91 42.42 39.34 38.73 38.41 37.77 38.13 39.04
58.58 58.66 58.70 58.90 58.55 56.85 52.08 49.87 51.56 49.04 42.59 47.66 48.53 48.65 47.66 49.53 46.65 44.87 46.08 43.72 40.10 38.12 38.37 35.04 39.21 42.86 41.63 38.80 37.46 35.91 34.36 33.79 35.08 36.47 36.93 33.89 32.10 35.81 37.47 39.11 39.59 39.04 38.85 38.74 37.91
59.05 59.62 58.74 58.14 55.01 54.93 50.70 51.87 51.58 48.99 38.59 43.13 43.96 43.92 45.58 46.29 41.96 45.81 46.08 43.62 41.25 38.70 39.05 38.40 42.12 41.17 38.12 36.92 37.51 33.00 37.97 37.03 35.88 31.41 27.23 33.31 24.38 32.88 35.76 35.33 36.54 36.47 35.30 35.65 36.40
58.70 58.79 58.25 57.66 55.42 53.83 52.23 51.87 50.41 47.10 27.79 42.38 41.34 47.65 45.00 42.43 41.67 41.14 44.10 41.80 38.29 38.25 37.67 36.81 37.16 36.00 35.48 37.34 38.69 35.69 36.97 34.91 33.73 30.01 28.17 29.29 25.37 30.61 34.95 32.83 33.94 34.54 35.39 35.74 36.26
57.31 57.04 57.39 56.61 56.11 53.27 52.17 50.98 50.09 38.25 30.06 38.03 40.67 39.86 38.59 39.66 39.90 41.39 41.18 41.75 40.86 37.77 37.05 37.14 38.81 38.63 38.59 39.47 38.41 38.17 34.39 34.08 31.32 29.42 23.32 29.42 28.86 29.54 32.11 34.17 33.74 35.06 35.46 36.02 35.80
55.37 56.47 56.24 58.30 54.36 54.59 54.42 53.33 41.08 34.48 43.40 37.17 37.04 39.22 38.07 36.61 37.22 38.57 37.37 34.88 34.94 31.76 31.40 36.22 36.54 37.83 38.93 35.16 36.44 35.22 30.22 25.16 23.42 21.68 23.15 31.39 29.33 32.61 36.98 36.06 36.03 34.24 34.03 34.44 34.68
52.20 52.49 53.26 56.41 57.36 56.73 55.07 46.25 33.97 38.90 39.88 41.77 39.48 38.67 36.68 38.91 37.72 37.31 36.01 34.34 38.04 35.95 33.42 31.77 30.29 35.25 37.05 36.49 34.61 32.62 32.39 26.01 18.02 22.04 23.80 30.29 27.04 32.80 35.10 36.32 35.99 35.39 34.63 34.59 34.00
53.11 51.24 51.54 53.66 57.17 56.31 49.65 38.33 35.94 39.37 42.30 41.65 41.76 37.74 36.93 40.84 40.94 36.09 34.53 35.86 39.13 38.54 33.41 30.68 31.15 35.55 36.42 35.90 37.21 33.74 30.89 35.65 29.20 28.50 21.38 26.81 31.15 33.50 35.24 34.16 33.98 33.16 32.71 32.12 33.50
49.22 48.40 48.81 54.38 56.65 52.33 43.29 39.08 39.12 43.66 42.97 42.67 37.16 39.19 34.16 36.96 37.81 36.89 36.26 37.08 36.77 38.17 38.61 36.67 28.30 37.46 35.97 37.13 35.94 35.91 37.72 28.67 30.12 16.72 15.97 23.52 25.46 27.23 31.65 32.24 32.95 31.26 31.36 31.55 32.57
47.34 42.73 48.75 53.55 54.79 45.29 36.06 37.27 39.72 43.48 43.61 40.30 37.54 35.87 35.35 35.04 37.45 33.68 34.65 37.80 38.34 37.16 40.52 37.88 34.17 31.56 35.63 33.38 33.30 30.71 29.98 32.20 32.11 28.71 21.89 17.16 22.97 33.69 34.37 34.09 32.18 31.49 32.23 32.61 32.74
44.20 36.85 47.79 52.69 39.94 41.02 37.24 38.38 41.45 39.72 42.19 39.50 39.44 37.86 35.85 35.49 32.92 33.21 33.77 35.95 40.39 39.23 36.29 38.39 33.85 24.42 30.82 35.54 36.02 35.27 32.92 32.41 28.21 24.32 26.14 26.35 26.54 35.58 34.91 34.12 32.95 32.99 33.07 31.68 31.34
39.77 41.07 48.71 50.11 32.88 34.51 37.93 39.06 40.39 38.39 39.12 39.10 37.56 39.20 38.79 34.64 31.49 34.49 35.20 39.00 40.43 39.13 36.80 37.72 30.26 16.74 22.03 27.62 33.84 31.58 33.72 34.37 33.38 31.02 23.49 20.24 23.12 33.44 32.61 32.96 33.55 32.52 32.31 31.15 29.72
39.13 35.41 40.49 44.21 41.28 35.92 35.19 35.72 35.84 40.64 39.09 40.20 38.82 39.11 36.00 34.21 36.03 32.72 33.91 37.98 38.67 38.21 40.55 39.33 31.91 22.99 20.06 23.11 29.10 25.66 28.28 28.45 29.46 22.75 19.95 22.75 25.17 30.13 31.68 30.11 31.63 32.27 30.55 28.95 27.59
38.19 33.36 37.55 33.59 36.92 37.73 37.26 35.47 34.04 34.16 38.54 39.09 36.39 35.97 33.99 30.21 31.46 31.23 33.32 34.62 36.48 38.85 36.12 34.22 22.58 27.44 28.40 27.38 26.20 25.37 25.81 26.72 24.00 25.40 19.79 24.00 24.07 28.09 30.10 26.01 25.39 26.58 28.44 29.14 28.46
32.80 32.39 34.59 33.35 36.62 36.08 36.36 33.60 32.82 35.51 36.12 33.52 33.69 35.57 35.37 31.35 30.96 25.79 29.66 30.20 29.46 30.90 30.91 32.50 18.92 22.95 14.53 25.35 25.55 22.82 24.73 24.42 24.36 24.42 24.08 25.08 24.78 31.66 25.89 26.58 25.73 26.76 26.64 25.66 26.05
35.71 36.78 35.31 33.91 32.62 33.60 32.50 33.72 33.08 34.89 33.78 35.47 35.76 33.49 30.60 30.63 32.84 32.58 32.22 31.48 31.43 28.94 27.50 26.61 20.60 11.56 8.72 21.70 17.24 10.45 19.19 22.76 23.70 25.49 23.75 19.66 23.95 21.41 22.42 25.64 23.96 24.32 25.37 25.78 26.59